| time (UTC) | temp F | wind direction | speed knots | gust knots | rain 1hr in | rain 24hr in | rain mn in | humidity % | barometer mb |
| 20260505120620 | 43 | 149 | 5.2 | 10.4 | 0.00 | 0.19 | 0.19 | 78 | 1012.1 |
| 20260505120522 | 43 | 141 | 5.2 | 10.4 | 0.00 | 0.19 | 0.19 | 78 | 1012.1 |
| 20260505120416 | 43 | 150 | 5.2 | 9.6 | 0.00 | 0.19 | 0.19 | 78 | 1012.2 |
| 20260505101327 | 43 | 169 | 4.3 | 8.7 | 0.00 | 0.19 | 0.19 | 79 | 1012.1 |
| 20260505101145 | 42 | 167 | 3.5 | 7.8 | 0.00 | 0.19 | 0.19 | 78 | 1012.1 |
| 20260505101046 | 43 | 148 | 3.5 | 7.8 | 0.00 | 0.19 | 0.19 | 79 | 1012.2 |
| 20260505100944 | 43 | 156 | 3.5 | 7.8 | 0.00 | 0.19 | 0.19 | 79 | 1012.2 |
| 20260505061922 | 43 | 132 | 3.5 | 13.0 | 0.00 | 0.19 | 0.19 | 79 | 1012.1 |
| 20260505061817 | 43 | 142 | 4.3 | 13.0 | 0.00 | 0.19 | 0.19 | 78 | 1012.0 |
| 20260505061717 | 43 | 151 | 6.1 | 11.3 | 0.00 | 0.19 | 0.19 | 80 | 1011.8 |
| 20260505061651 | 43 | 155 | 5.2 | 10.4 | 0.00 | 0.19 | 0.19 | 81 | 1012.0 |
| 20260505061528 | 44 | 163 | 6.1 | 12.2 | 0.00 | 0.19 | 0.19 | 80 | 1012.2 |
| 20260505054138 | 44 | 163 | 6.1 | 12.2 | 0.00 | 0.19 | 0.19 | 80 | 1012.2 |
| 20260505054038 | 45 | 166 | 3.5 | 12.2 | 0.00 | 0.19 | 0.19 | 78 | 1012.2 |
| 20260505053933 | 46 | 144 | 3.5 | 7.8 | 0.00 | 0.19 | 0.19 | 75 | 1012.3 |
| 20260505053831 | 46 | 170 | 0.9 | 2.6 | 0.00 | 0.19 | 0.19 | 71 | 1012.2 |
| 20260505053729 | 46 | 158 | 0.9 | 6.1 | 0.00 | 0.19 | 0.19 | 69 | 1012.1 |
| 20260505053626 | 46 | 126 | 2.6 | 6.1 | 0.00 | 0.19 | 0.19 | 69 | 1012.2 |
| 20260505053526 | 46 | 120 | 1.7 | 4.3 | 0.00 | 0.19 | 0.19 | 72 | 1012.2 |
| 20260505053423 | 46 | 96 | 1.7 | 8.7 | 0.00 | 0.19 | 0.19 | 70 | 1012.3 |
| 20260505053319 | 46 | 96 | 5.2 | 12.2 | 0.00 | 0.19 | 0.19 | 69 | 1012.0 |
| 20260505051559 | 46 | 109 | 7.8 | 12.2 | 0.00 | 0.19 | 0.19 | 69 | 1012.0 |
| 20260505051425 | 46 | 57 | 7.8 | 12.2 | 0.00 | 0.19 | 0.19 | 69 | 1011.9 |
| 20260505050754 | 46 | 82 | 7.0 | 13.0 | 0.00 | 0.19 | 0.19 | 68 | 1011.9 |
| 20260505050651 | 46 | 80 | 7.8 | 13.0 | 0.00 | 0.19 | 0.19 | 68 | 1012.0 |
| 20260505050549 | 46 | 55 | 7.0 | 13.0 | 0.00 | 0.19 | 0.19 | 69 | 1011.9 |
| 20260505050411 | 46 | 84 | 7.8 | 12.2 | 0.00 | 0.19 | 0.19 | 69 | 1012.0 |
| 20260505050311 | 47 | 27 | 5.2 | 12.2 | 0.00 | 0.19 | 0.19 | 68 | 1011.9 |
| 20260505041758 | 51 | 140 | 5.2 | 13.9 | 0.00 | 0.18 | 0.18 | 59 | 1012.7 |
| 20260505041653 | 53 | 200 | 6.1 | 13.9 | 0.00 | 0.18 | 0.18 | 58 | 1012.2 |
| 20260505041554 | 54 | 229 | 1.7 | 4.3 | 0.00 | 0.18 | 0.18 | 56 | 1012.1 |
| 20260505041451 | 55 | 283 | 0.0 | 2.6 | 0.00 | 0.18 | 0.18 | 58 | 1011.9 |
| 20260505041350 | 55 | 319 | 0.9 | 2.6 | 0.00 | 0.18 | 0.18 | 54 | 1011.8 |
| 20260505041245 | 55 | 304 | 0.0 | 2.6 | 0.00 | 0.18 | 0.18 | 54 | 1011.8 |
| 20260505041142 | 55 | 331 | 0.9 | 2.6 | 0.00 | 0.18 | 0.18 | 51 | 1011.9 |
| 20260505041039 | 55 | 46 | 0.9 | 2.6 | 0.00 | 0.18 | 0.18 | 53 | 1012.0 |
| 20260505034129 | 55 | 90 | 0.9 | 2.6 | 0.00 | 0.18 | 0.18 | 58 | 1011.8 |
| 20260505034031 | 55 | 110 | 0.0 | 1.7 | 0.00 | 0.18 | 0.18 | 58 | 1011.8 |
| 20260505033926 | 54 | 110 | 0.9 | 2.6 | 0.00 | 0.18 | 0.18 | 57 | 1011.8 |
| 20260505033900 | 54 | 76 | 0.9 | 2.6 | 0.00 | 0.18 | 0.18 | 56 | 1011.8 |
| 20260505033750 | 55 | 126 | 1.7 | 3.5 | 0.00 | 0.18 | 0.18 | 62 | 1011.8 |
| 20260505033652 | 55 | 130 | 0.9 | 4.3 | 0.00 | 0.18 | 0.18 | 56 | 1011.9 |
| 20260505033546 | 55 | 135 | 1.7 | 8.7 | 0.00 | 0.18 | 0.18 | 56 | 1011.8 |
| 20260505033445 | 54 | 149 | 2.6 | 8.7 | 0.00 | 0.18 | 0.18 | 62 | 1011.8 |
| 20260505033342 | 53 | 141 | 0.9 | 6.1 | 0.00 | 0.18 | 0.18 | 64 | 1011.9 |
| 20260505033233 | 52 | 140 | 3.5 | 6.1 | 0.00 | 0.18 | 0.18 | 64 | 1012.0 |
| 20260505033151 | 51 | 123 | 2.6 | 4.3 | 0.00 | 0.18 | 0.18 | 68 | 1012.0 |
| 20260505033121 | 50 | 132 | 1.7 | 4.3 | 0.02 | 0.18 | 0.18 | 70 | 1012.1 |
| 20260505032928 | 50 | 111 | 2.6 | 4.3 | 0.02 | 0.18 | 0.18 | 73 | 1011.9 |
| 20260505032830 | 49 | 164 | 1.7 | 7.8 | 0.02 | 0.18 | 0.18 | 67 | 1012.0 |
| 20260505032723 | 49 | 154 | 1.7 | 7.8 | 0.02 | 0.18 | 0.18 | 72 | 1012.0 |
| 20260505032622 | 49 | 157 | 0.9 | 6.1 | 0.02 | 0.18 | 0.18 | 73 | 1012.4 |
| 20260505032520 | 49 | 165 | 2.6 | 5.2 | 0.02 | 0.18 | 0.18 | 77 | 1012.5 |
| 20260505032414 | 48 | 42 | 0.9 | 5.2 | 0.02 | 0.18 | 0.18 | 72 | 1012.5 |
| 20260505032314 | 48 | 13 | 1.7 | 7.0 | 0.02 | 0.18 | 0.18 | 73 | 1012.7 |
| 20260505032212 | 48 | 37 | 3.5 | 7.0 | 0.02 | 0.18 | 0.18 | 74 | 1012.5 |
| 20260505032108 | 48 | 55 | 1.7 | 10.4 | 0.02 | 0.18 | 0.18 | 72 | 1012.5 |
| 20260505032011 | 48 | 347 | 5.2 | 10.4 | 0.02 | 0.18 | 0.18 | 70 | 1012.4 |
| 20260505031906 | 49 | 15 | 3.5 | 6.1 | 0.06 | 0.18 | 0.18 | 77 | 1012.4 |
| 20260505031801 | 49 | 345 | 1.7 | 4.3 | 0.11 | 0.16 | 0.16 | 69 | 1012.6 |
| 20260505031701 | 49 | 34 | 1.7 | 3.5 | 0.12 | 0.16 | 0.16 | 69 | 1012.6 |
| 20260505031623 | 49 | 44 | 1.7 | 3.5 | 0.12 | 0.16 | 0.16 | 76 | 1012.6 |
| 20260505031457 | 49 | 65 | 1.7 | 3.5 | 0.12 | 0.16 | 0.16 | 80 | 1012.7 |
| 20260505031355 | 49 | 33 | 1.7 | 3.5 | 0.12 | 0.16 | 0.16 | 77 | 1012.9 |
| 20260505031252 | 49 | 77 | 1.7 | 5.2 | 0.12 | 0.16 | 0.16 | 76 | 1013.0 |
| 20260505031148 | 49 | 61 | 1.7 | 5.2 | 0.12 | 0.16 | 0.16 | 80 | 1013.0 |
| 20260505031114 | 49 | 66 | 1.7 | 5.2 | 0.12 | 0.16 | 0.16 | 77 | 1013.1 |
| 20260505031043 | 48 | 102 | 1.7 | 6.1 | 0.12 | 0.16 | 0.16 | 77 | 1013.1 |
| 20260505030942 | 48 | 81 | 1.7 | 6.1 | 0.12 | 0.16 | 0.16 | 83 | 1013.2 |
| 20260505030839 | 48 | 94 | 2.6 | 7.0 | 0.11 | 0.14 | 0.14 | 71 | 1013.3 |
| 20260505030737 | 49 | 205 | 2.6 | 13.0 | 0.08 | 0.12 | 0.12 | 67 | 1013.6 |
| 20260505030633 | 52 | 336 | 4.3 | 13.0 | 0.00 | 0.04 | 0.04 | 62 | 1013.3 |
| 20260505030601 | 55 | 337 | 0.9 | 5.2 | 0.00 | 0.04 | 0.04 | 50 | 1013.2 |
| 20260505030458 | 55 | 74 | 2.6 | 5.2 | 0.00 | 0.04 | 0.04 | 47 | 1013.2 |
| 20260505030356 | 55 | 148 | 1.7 | 5.2 | 0.00 | 0.04 | 0.04 | 51 | 1013.2 |
| 20260505030250 | 55 | 186 | 2.6 | 6.1 | 0.00 | 0.04 | 0.04 | 53 | 1013.2 |
| 20260505030208 | 54 | 229 | 0.9 | 6.1 | 0.00 | 0.04 | 0.04 | 55 | 1013.4 |
| 20260505025945 | 54 | 27 | 1.7 | 7.0 | 0.00 | 0.04 | 0.04 | 57 | 1013.4 |
| 20260505025844 | 54 | 64 | 1.7 | 7.0 | 0.00 | 0.04 | 0.04 | 53 | 1013.6 |
| 20260505025740 | 53 | 350 | 1.7 | 5.2 | 0.00 | 0.04 | 0.04 | 61 | 1013.8 |
| 20260505025638 | 52 | 66 | 2.6 | 5.2 | 0.00 | 0.04 | 0.04 | 56 | 1013.8 |
| 20260505025534 | 52 | 256 | 0.0 | 3.5 | 0.00 | 0.04 | 0.04 | 60 | 1013.9 |
| 20260505025433 | 52 | 355 | 0.9 | 4.3 | 0.00 | 0.04 | 0.04 | 60 | 1014.2 |
| 20260505025333 | 51 | 15 | 0.9 | 4.3 | 0.00 | 0.04 | 0.04 | 64 | 1014.2 |
| 20260505025229 | 50 | 295 | 1.7 | 3.5 | 0.00 | 0.04 | 0.04 | 67 | 1014.5 |
| 20260505025128 | 49 | 321 | 1.7 | 3.5 | 0.00 | 0.04 | 0.04 | 68 | 1014.4 |
| 20260505025022 | 48 | 343 | 2.6 | 7.0 | 0.00 | 0.04 | 0.04 | 69 | 1014.6 |
| 20260505024924 | 47 | 259 | 3.5 | 8.7 | 0.00 | 0.04 | 0.04 | 69 | 1014.5 |
| 20260505024820 | 47 | 281 | 4.3 | 15.6 | 0.00 | 0.04 | 0.04 | 70 | 1014.7 |
| 20260505023911 | 47 | 232 | 3.5 | 15.6 | 0.00 | 0.04 | 0.04 | 69 | 1014.7 |
| 20260505023807 | 48 | 224 | 5.2 | 15.6 | 0.00 | 0.04 | 0.04 | 66 | 1014.7 |
| 20260505023705 | 49 | 198 | 5.2 | 15.6 | 0.00 | 0.04 | 0.04 | 64 | 1014.6 |
| 20260505023603 | 50 | 254 | 4.3 | 12.2 | 0.00 | 0.04 | 0.04 | 63 | 1014.6 |
| 20260505023501 | 50 | 207 | 7.0 | 13.9 | 0.01 | 0.04 | 0.04 | 60 | 1014.7 |
| 20260505023359 | 51 | 175 | 2.6 | 7.8 | 0.01 | 0.04 | 0.04 | 67 | 1014.9 |
| 20260505023304 | 51 | 339 | 0.9 | 5.2 | 0.01 | 0.04 | 0.04 | 66 | 1014.9 |
| 20260505020643 | 51 | 340 | 2.6 | 5.2 | 0.01 | 0.04 | 0.04 | 67 | 1015.0 |
| 20260505020537 | 51 | 32 | 0.9 | 6.1 | 0.02 | 0.04 | 0.04 | 66 | 1014.9 |
| 20260505020037 | 51 | 274 | 1.7 | 7.8 | 0.03 | 0.04 | 0.04 | 66 | 1015.1 |
| 20260505015908 | 52 | 182 | 2.6 | 8.7 | 0.04 | 0.04 | 0.04 | 66 | 1014.8 |
| 20260505015809 | 53 | 336 | 2.6 | 7.8 | 0.04 | 0.04 | 0.04 | 63 | 1014.7 |
| 20260505015708 | 53 | 291 | 2.6 | 7.8 | 0.04 | 0.04 | 0.04 | 62 | 1014.7 |
| 20260505015605 | 52 | 338 | 1.7 | 7.8 | 0.04 | 0.04 | 0.04 | 62 | 1014.7 |
| 20260505015502 | 50 | 14 | 1.7 | 7.8 | 0.04 | 0.04 | 0.04 | 63 | 1014.6 |
| 20260505015409 | 48 | 234 | 1.7 | 7.0 | 0.04 | 0.04 | 0.04 | 72 | 1014.9 |
| 20260505015257 | 47 | 284 | 1.7 | 7.0 | 0.03 | 0.03 | 0.03 | 70 | 1014.9 |
| 20260505015155 | 46 | 261 | 1.7 | 9.6 | 0.03 | 0.03 | 0.03 | 70 | 1015.0 |
| 20260505015052 | 46 | 315 | 1.7 | 7.8 | 0.03 | 0.03 | 0.03 | 70 | 1015.1 |
| 20260505014951 | 47 | 254 | 2.6 | 6.1 | 0.03 | 0.03 | 0.03 | 66 | 1014.9 |
| 20260505014849 | 48 | 194 | 3.5 | 13.9 | 0.02 | 0.02 | 0.02 | 64 | 1015.1 |
| 20260504175017 | 51 | 174 | 4.3 | 13.9 | 0.01 | 0.01 | 0.01 | 57 | 1015.2 |
| 20260504160208 | 52 | 236 | 0.0 | 4.3 | 0.00 | 0.00 | 0.00 | 52 | 1015.4 |
| 20260504151056 | 52 | 180 | 1.7 | 5.2 | 0.00 | 0.00 | 0.00 | 52 | 1016.0 |
| 20260504150553 | 53 | 209 | 2.6 | 7.0 | 0.00 | 0.00 | 0.00 | 50 | 1016.0 |
| 20260504150119 | 54 | 207 | 2.6 | 7.0 | 0.00 | 0.00 | 0.00 | 49 | 1015.8 |
| 20260504141115 | 47 | 154 | 2.6 | 8.7 | 0.00 | 0.00 | 0.00 | 59 | 1015.7 |
| 20260504140621 | 47 | 178 | 1.7 | 8.7 | 0.00 | 0.00 | 0.00 | 59 | 1015.7 |
| 20260504140112 | 47 | 159 | 2.6 | 7.8 | 0.00 | 0.00 | 0.00 | 59 | 1015.6 |